Weather History for New York JFK, NY

Change the Weather History Date:

Thursday, February 28, 2013

  Actual Average Record
Temperature  
Mean Temperature 46 °F 37 °F  
Max Temperature 51 °F 45 °F 66 °F (1976)
Min Temperature 40 °F 30 °F 11 °F (2014)
Degree Days  
Heating Degree Days 19 28  
Month to date heating degree days 860 842  
Since 1 July heating degree days 3330 3511  
Cooling Degree Days 0 0  
Month to date cooling degree days 0 0  
Year to date cooling degree days 0 0  
Moisture  
Dew Point 33 °F    
Average Humidity 69    
Maximum Humidity 89    
Minimum Humidity 49    
Precipitation  
Precipitation T in 0.11 in 1.62 in (1984)
Month to date precipitation 2.73 2.59  
Year to date precipitation 5.12 5.75  
Snow  
Snow 0.00 in 0.20 in 10.10 in (1949)
Month to date snowfall 7.4 8.3  
Since 1 July snowfall 13.2 19.5  
Snow Depth 0.00 in    
Sea Level Pressure  
Sea Level Pressure 29.60 in    
Wind  
Wind Speed 9 mph (WSW)    
Max Wind Speed 20 mph    
Max Gust Speed 22 mph    
Visibility 10 miles    
Events Rain    
T = Trace of Precipitation, MM = Missing Value Source: NWS Daily Summary

Daily Weather History Graph

Daily Weather History Graph

Search for Another Location

Airport:

Trip Planner

Search our weather history database for the weather conditions in past years. The results will help you decide how hot, cold, wet, or windy it might be!

Date:

Astronomy

Feb. 28, 2013 Rise Set
Actual Time 6:30 AM EST 5:45 PM EST
Civil Twilight 6:02 AM EST 6:13 PM EST
Nautical Twilight 5:31 AM EST 6:44 PM EST
Astronomical Twilight 4:59 AM EST 7:16 PM EST
Moon 9:10 PM EST (2/28) 7:37 AM EST (2/28)
Length of Visible Light 12h 10m
Length of Day
11h 15m
Waning Gibbous, 91% of the Moon is Illuminated
Feb 28
Waning Gibbous
Mar 4
Last Quarter
Mar 11
New
Mar 19
First Quarter
Mar 27
Full

Hourly Weather History & Observations

Time (EST) Temp. Windchill Dew Point Humidity Pressure Visibility Wind Dir Wind Speed Gust Speed Precip Events Conditions
12:51 AM 41.0 °F 37.1 °F 36.0 °F 82% 29.64 in 10.0 mi WSW 5.8 mph - N/A   Overcast
1:51 AM 41.0 °F 38.0 °F 37.0 °F 86% 29.63 in 10.0 mi SSW 4.6 mph - N/A   Overcast
2:51 AM 41.0 °F 38.0 °F 37.0 °F 86% 29.62 in 10.0 mi South 4.6 mph - N/A   Overcast
3:51 AM 41.0 °F 39.0 °F 37.0 °F 86% 29.62 in 10.0 mi SSW 3.5 mph - N/A   Overcast
4:51 AM 42.1 °F 40.2 °F 37.9 °F 85% 29.62 in 9.0 mi South 3.5 mph - 0.00 in Rain Light Rain
5:51 AM 39.9 °F 35.8 °F 37.0 °F 89% 29.62 in 10.0 mi WSW 5.8 mph - 0.00 in   Overcast
6:51 AM 41.0 °F 35.8 °F 37.0 °F 86% 29.63 in 9.0 mi SW 8.1 mph - 0.00 in Rain Light Rain
7:51 AM 43.0 °F 40.3 °F 37.9 °F 82% 29.63 in 9.0 mi WSW 4.6 mph - 0.00 in Rain Light Rain
8:51 AM 44.1 °F 40.8 °F 37.9 °F 79% 29.64 in 9.0 mi WSW 5.8 mph - 0.00 in Rain Light Rain
9:51 AM 43.0 °F 38.2 °F 39.0 °F 86% 29.63 in 8.0 mi WSW 8.1 mph - 0.00 in Rain Light Rain
10:51 AM 48.9 °F - 39.0 °F 69% 29.61 in 10.0 mi WSW 9.2 mph - 0.00 in   Mostly Cloudy
11:51 AM 50.0 °F - 34.0 °F 54% 29.58 in 10.0 mi WSW 8.1 mph - N/A   Mostly Cloudy
12:51 PM 48.9 °F - 35.1 °F 59% 29.57 in 10.0 mi SSW 10.4 mph - N/A   Mostly Cloudy
1:51 PM 48.0 °F - 33.1 °F 56% 29.56 in 10.0 mi SW 11.5 mph - N/A   Overcast
2:51 PM 46.9 °F - 32.0 °F 56% 29.56 in 10.0 mi WSW 11.5 mph - N/A   Overcast
3:51 PM 46.9 °F - 28.9 °F 50% 29.55 in 10.0 mi West 12.7 mph - N/A   Overcast
4:51 PM 46.0 °F 40.6 °F 28.9 °F 51% 29.56 in 10.0 mi West 11.5 mph - N/A   Overcast
5:51 PM 46.0 °F 40.2 °F 28.0 °F 50% 29.57 in 10.0 mi WNW 12.7 mph - N/A   Overcast
6:51 PM 45.0 °F 39.7 °F 27.0 °F 49% 29.59 in 10.0 mi WNW 10.4 mph - N/A   Overcast
7:51 PM 45.0 °F 37.6 °F 26.1 °F 48% 29.60 in 10.0 mi West 17.3 mph - N/A   Overcast
8:51 PM 43.0 °F 36.0 °F 27.0 °F 53% 29.60 in 10.0 mi West 13.8 mph - N/A   Overcast
9:51 PM 43.0 °F 36.8 °F 28.0 °F 56% 29.61 in 10.0 mi WNW 11.5 mph - N/A   Mostly Cloudy
10:51 PM 42.1 °F 35.2 °F 28.0 °F 58% 29.62 in 10.0 mi West 12.7 mph 19.6 mph N/A   Overcast
11:51 PM 39.9 °F 32.1 °F 28.9 °F 65% 29.62 in 10.0 mi WNW 13.8 mph - N/A   Mostly Cloudy